sat.trackr.live / text

‹ back to catalog

LYNK TOWER 5

NORAD 59121 · 2024-043Z

PAYLOAD ACTIVE UNKNOWN

§ Identity

Operator
Country
US
Launch date
2024-03-04
Launch site
AFWTR
Launch vehicle
Mass (kg)
RCS (m²)

External: N2YO · Heavens-Above · Gunter

§ Orbital elements

Epoch: 2026-05-25T02:48:36.955296Z

Period
94.09 min
Inclination
97.5602°
Eccentricity
0.0010169
Mean motion
15.30431687 rev/d
Perigee alt
467.6 km
Apogee alt
481.5 km
Semi-major
6,852.7 km
B*
1.6849e-4
RAAN
282.1875°
Arg perigee
336.2871°
Mean anomaly
23.7900°
Rev number
12,351

§ Raw data

LYNK TOWER 51 59121U 24043Z   26145.11709439  .00004885  00000+0  16849-3 0  99982 59121  97.5602 282.1875 0010169 336.2871  23.7900 15.30431687123510

JSON: /api/v1/satellites/59121 · /tle

For live sub-satellite position, see the globe view (requires WebGL).

§ Visibility from observer

Set your observer location to see the next 7 days of passes ≥ 10°. The values pass through the URL so the page stays shareable.

No JS? Fill the form by hand. The geolocation button needs JavaScript.

§ Radio — SatNOGS DB

ModeDescriptionDownlinkUplink
BPSK S-band telemetry 2.260 GHz

1 transmitter · refreshed weekly from db.satnogs.org